Regional Weather Roundup
Issued by NWS

Home | Current Version | Previous Version | Text Only | Print | Product List | Glossary On
Versions: 1 2 3 4 5 6 7 8 9 10 11 12 13 14 15 16 17 18 19 20 21 22 23 24 25 26 27
000
ASUS42 KTBW 222017
RWRFL
FLORIDA REGIONAL WEATHER ROUNDUP
NATIONAL WEATHER SERVICE TAMPA BAY RUSKIN FL
400 PM EDT SAT JUL 22 2017

NOTE: "FAIR" INDICATES FEW OR NO CLOUDS BELOW 12,000 FEET WITH NO
SIGNIFICANT WEATHER AND/OR OBSTRUCTIONS TO VISIBILITY.

FLZ001>010-012>015-112-114-115-222100-
PANHANDLE FLORIDA

CITY           SKY/WX    TMP DP  RH WIND       PRES   REMARKS
PENSACOLA      MOSUNNY   91  74  57 S14       29.98F HX 100
PENSACOLA NAS  PTSUNNY   89  75  63 S13       29.98F HX  99
MILTON NAS     MOSUNNY   89  77  67 SW14      29.97  HX 101
CRESTVIEW      CLOUDY    80  71  74 S3        30.01F
DUKE FIELD     FAIR      78  69  75 S3        29.99F
VALPARAISO     PTSUNNY   90  74  59 S8        29.99F HX  99
MARY ESTHER    MOSUNNY   89  76  66 SW10      29.98F HX 100
PANAMA CITY    PTSUNNY   87  75  67 S13       29.98F HX  96
TYNDALL AFB    CLOUDY    87  75  67 SW12      29.99F HX  97
APALACHICOLA   MOSUNNY   88  78  72 SW10      30.00F HX 101

STATION/POSITION SKY/WX   TEMP    WIND        PRES    WAVE   SWELL
                          AIR SEA DIR/SP/G            HT/PER HT/PER
                          (F)     (DEG/KT/KT) (MB)    (FT/S) (FT/S)
30.1N   87.6W              85 90  190/ 10/ 12 1015.4F   1/ 5
29.2N   88.2W              83 86  180/ 10/ 12 1016.0
28.8N   86.0W              83 85  210/  8/ 10 1016.4F   2/ 4   2/ 8
PANAMA CITY BEAC           86     210/  8/ 10 1016.0F
TOWER C          NOT AVBL
28.5N   84.5W              83 87   CALM  /  2 1016.8F   1/ 4

$$
FLZ011-016>038-118-127-128-134-139-239-222100-
NORTH FLORIDA

CITY           SKY/WX    TMP DP  RH WIND       PRES   REMARKS
MARIANNA       SUNNY     91  72  53 SE6       29.96F HX  98
TALLAHASSEE    CLOUDY    85  77  77 SE7       29.99F HX  95
PERRY          PTSUNNY   82  77  82 S6        30.03F
LIVE OAK       SUNNY     77  77 100 CALM      30.04S
CROSS CITY     LGT RAIN  77  75  93 S5        30.08F
LAKE CITY      LGT RAIN  73  73 100 SW5       30.04S
GAINESVILLE    LGT RAIN  74  73  97 CALM      30.05F
WILLISTON      SUNNY     79  77  94 CALM      30.04F
PALATKA        CLOUDY    75  72  88 SW6       30.06R
MAYPORT NAS    CLOUDY    81  73  76 SW14G20   30.04R THUNDER
JACKSONVILLE   TSTM      74  74 100 SW13      30.07R VSB 3/4
JAX NAS        TSTM      79  75  87 VRB5      30.07R FOG
JAX CECIL      RAIN      75  75 100 SW9       30.05S
FERNANDINA BEA PTSUNNY   88  73  62 SW17G28   30.04R THUNDER HX  96
ST AUGUSTINE   TSTM      74  73  97 SW9       30.09R FOG
PALM COAST     MOSUNNY   73  73 100 CALM      30.07F

STATION/POSITION SKY/WX   TEMP    WIND        PRES    WAVE   SWELL
                          AIR SEA DIR/SP/G            HT/PER HT/PER
                          (F)     (DEG/KT/KT) (MB)    (FT/S) (FT/S)
SHELL POINT      NOT AVBL
KEATON BEACH               82     210/  8/ 10 1016.3F
CEDAR KEY                  83     230/  7/ 10 1017.2F
FERNANDINA                 89 87  140/ 10/ 15 1017.4R
30.7N   81.3W                 85                N/A     2/ 9
MAYPORT                    79 83  230/ 13/ 15 1017.6R
31.4N   80.9W              83 84  160/ 12/ 14 1015.6F   2/ 8   2/ 8
ST AUGUSTINE               74 82  330/  5/  6 1018.2R

$$
FLZ040-043>046-052-053-057-058-063-144-222100-
INTERIOR CENTRAL FLORIDA

CITY           SKY/WX    TMP DP  RH WIND       PRES   REMARKS
THE VILLAGES     N/A     77  77 100 CALM      29.97S
LEESBURG       LGT RAIN  77  76  96 CALM      30.07F
SANFORD        LGT RAIN  74  72  93 CALM      30.06S
ORLANDO EXEC   LGT RAIN  75  72  88 W5        30.07R
ORLANDO INTL   LGT RAIN  76  73  91 NW6       30.07S
KISSIMMEE      LGT RAIN  77  74  90 S6        30.08S
WINTER HAVEN   CLOUDY    79  73  82 CALM      30.08S
LAKELAND       MOSUNNY   82  75  78 SW5       30.06F
BARTOW         PTSUNNY   81  77  89 CALM      30.06F
SEBRING        LGT RAIN  77  73  87 E6        30.07F
OKEECHOBEE     CLOUDY    77  72  83 W6        30.08F

$$
FLZ041-047-054-059-064-141-147-222100-
EAST CENTRAL FLORIDA

CITY           SKY/WX    TMP DP  RH WIND       PRES   REMARKS
ORMOND BEACH   TSTM      73  73 100 CALM      30.06F
DAYTONA BEACH  TSTM      75  75 100 SW5       30.06F
DELAND         TSTM      75  72  88 SW3       30.06S
NEW SMYRNA BEA PTSUNNY   73  72  94 SW7       30.08F
TITUSVILLE     LGT RAIN  77  75  94 W6        30.09R
CAPE CANAVERAL TSTM      82  72  69 W16G29    30.09R
PATRICK AFB    TSTM      77  73  88 W25G38    30.11R VSB<1/4
MELBOURNE      TSTM      74  71  91 W15G28    30.12R FOG
VERO BEACH     PTSUNNY   86  74  67 SW10      30.05F
FT PIERCE      PTSUNNY   88  75  65 SE13      30.03F HX  97
STUART         MOSUNNY   91  75  59 SE10      30.06  HX 102

STATION/POSITION SKY/WX   TEMP    WIND        PRES    WAVE   SWELL
                          AIR SEA DIR/SP/G            HT/PER HT/PER
                          (F)     (DEG/KT/KT) (MB)    (FT/S) (FT/S)
28.5N   80.2W              84 84  150/ 10/ 12 1019.0
28.9N   78.5W              84 85  210/ 10/ 12 1017.5F   3/ 9   2/ 9
TRIDENT PIER               83 84  270/  5/  9 1020.2R
28.4N   80.5W                 83                N/A     2/ 9
27.5N   80.2W                 81                N/A     2/11

$$
FLZ050-056-061-142-242-148-248-149-249-151-251-155-255-
160-260-222100-
WEST CENTRAL FLORIDA

CITY           SKY/WX    TMP DP  RH WIND       PRES   REMARKS
CRYSTAL RIVER  FAIR      84  73  70 W6        30.05F
INVERNESS      FAIR      81  77  89 CALM      30.06F
BROOKSVILLE    PTSUNNY   81  76  84 S3        30.06F
CLEARWATER AIR FAIR      81  77  89 S3        30.06F
ST PETE CLEARW CLOUDY    85  75  72 S3        30.06S THUNDER
TAMPA INTL     CLOUDY    83  74  74 S6        30.06S
TAMPA EXEC     CLOUDY    84  77  79 CALM      30.06F
PLANT CITY     CLOUDY    82  79  89 N3        30.08S
MACDILL AFB    CLOUDY    80  80  98 SW3       30.06S
PETER O KNIGHT CLOUDY    82  81  94 W5        30.06S HX  95
ST PETERSBURG  CLOUDY    83  73  72 SW10G21   30.04F
SARASOTA       CLOUDY    80  72  76 NW12G23   30.05R
VENICE         FAIR      86  77  74 S8        30.06F HX  97

STATION/POSITION SKY/WX   TEMP    WIND        PRES    WAVE   SWELL
                          AIR SEA DIR/SP/G            HT/PER HT/PER
                          (F)     (DEG/KT/KT) (MB)    (FT/S) (FT/S)
27.3N   84.2W                 89                N/A     1/ 7
CLEARWATER BEACH           82 87  180/  6/  7 1018.2F
MIDDLE TAMPA BAY           80     270/ 11/ 14 1018.2F
VENICE                     83 89  180/ 11/ 12 1018.3F

$$
FLZ066-069-070-075>078-162-262-165-265-222100-
SOUTHWEST FLORIDA AND KEYS

CITY           SKY/WX    TMP DP  RH WIND       PRES   REMARKS
PUNTA GORDA    CLOUDY    80  74  81 SW3       30.08F
FT MYERS       CLOUDY    80  77  90 CALM      30.06S
SOUTHWEST INTL PTSUNNY   79  75  87 E3        30.06F
NAPLES         CLOUDY    81  76  84 NE3       30.05F
MARCO ISLAND   CLOUDY    84  75  74 N3        30.06S
IMMOKALEE      FAIR      79  73  83 W3        30.07S
MARATHON       PTSUNNY   88  78  72 VRB5      30.04F HX 101
KEY WEST NAS   CLOUDY    86  76  71 N16       30.05F THUNDER HX  96
KEY WEST INTL  MOSUNNY   89  75  63 E5        30.05F HX  99

STATION/POSITION SKY/WX   TEMP    WIND        PRES    WAVE   SWELL
                          AIR SEA DIR/SP/G            HT/PER HT/PER
                          (F)     (DEG/KT/KT) (MB)    (FT/S) (FT/S)
NAPLES                        87   20/  3/  5 1017.8F
DRY TORTUGAS               86     150/  6/  7 1017.7F
SAND KEY                   84     130/  3/  5 1017.9F
MOLASSES REEF              85 86  110/  5/  5 1017.7F

$$
FLZ067-068-071>074-168-172>174-222100-
SOUTHEAST FLORIDA

CITY           SKY/WX    TMP DP  RH WIND       PRES   REMARKS
W PALM BEACH   PTSUNNY   91  74  57 SE14      30.05F THUNDER HX 100
BOCA RATON     MOSUNNY   86  75  70 SE5       30.07F HX  95
FT LAUDER-EXEC CLOUDY    83  71  67 CALM      30.05F
FT LAUDERDALE  CLOUDY    86  73  65 SE10      30.04F
POMPANO BEACH  PTSUNNY   86  74  67 SE8       30.06F
PEMBROKE PINES CLOUDY    89  73  59 E9        30.06F HX  97
OPA LOCKA      PTSUNNY   90  76  63 E10       30.05F HX 101
MIAMI          PTSUNNY   89  72  56 E8        30.05F HX  96
WEST KENDALL   CLOUDY    89  75  63 SE9       30.04F HX  99
HOMESTEAD      PTSUNNY   89  80  73 E10       30.04F HX 106

STATION/POSITION SKY/WX   TEMP    WIND        PRES    WAVE   SWELL
                          AIR SEA DIR/SP/G            HT/PER HT/PER
                          (F)     (DEG/KT/KT) (MB)    (FT/S) (FT/S)
PORT EVERGLADES            86     140/  5/  7 1018.1F
VIRGINIA KEY               86 88  100/  5/  6 1017.3F
LAKE WORTH                        150/ 11/ 12   N/A
FOWEY ROCKS                85 88  100/  4/  6 1018.0F
SETTLEMENT POINT           85     200/  6/  8 1017.9F

$$





USA.gov is the U.S. government's official web portal to all federal, state and local government web resources and services.